Juliana Airport, Saint Maartin

2:51 AM AST on February 14, 2016 (GMT -0400)
Juliana Airport

Weather History for 78866 - March, 2014

Change the Weather History Date:

Saturday, March 22, 2014

  Actual Average Record
Temperature  
Mean Temperature 80 °F -  
Max Temperature 83 °F 83 °F - ()
Min Temperature 77 °F 73 °F - ()
Cooling Degree Days 15    
Growing Degree Days 30 (Base 50)    
Moisture  
Dew Point 71 °F    
Average Humidity 71    
Maximum Humidity 78    
Minimum Humidity 57    
Precipitation  
Precipitation 0.00 in 0.08 in - ()
Sea Level Pressure  
Sea Level Pressure 30.07 in    
Wind  
Wind Speed 10 mph ()    
Max Wind Speed 14 mph    
Max Gust Speed -    
Visibility 8.1 miles    
Events      
T = Trace of Precipitation, MM = Missing Value Source: Averaged Metar Reports

Daily Weather History Graph

Daily Weather History Graph

Search for Another Location

Airport or City:

Trip Planner

Search our weather history database for the weather conditions in past years. The results will help you decide how hot, cold, wet, or windy it might be!

Date:

Astronomy

Mar. 22, 2014 Rise Set
Actual Time 6:14 AM AST 6:23 PM AST
Civil Twilight 5:53 AM AST 6:45 PM AST
Nautical Twilight 5:27 AM AST 7:10 PM AST
Astronomical Twilight 5:02 AM AST 7:36 PM AST
Moon 11:57 PM AST (3/22) 10:34 AM AST (3/22)
Length of Visible Light 12h 52m
Length of Day
12h 08m
Waning Gibbous, 65% of the Moon is Illuminated
Mar 22
Waning Gibbous
Mar 23
Last Quarter
Mar 30
New
Apr 7
First Quarter
Apr 15
Full

Hourly Weather History & Observations

Time (AST) Temp. Heat Index Dew Point Humidity Pressure Visibility Wind Dir Wind Speed Gust Speed Precip Events Conditions
12:00 AM 78.8 °F - 69.8 °F 74% 30.06 in 6.2 mi ESE 9.2 mph - N/A   Partly Cloudy
1:00 AM 78.8 °F - 71.6 °F 78% 30.06 in 6.2 mi ESE 8.1 mph - N/A   Partly Cloudy
2:00 AM 78 °F - 71 °F 72% 30.04 in 19 mi SE 8.1 mph - -   Scattered Clouds
2:00 AM 78.8 °F - 71.6 °F 78% 30.04 in 6.2 mi ESE 9.2 mph - N/A   Partly Cloudy
3:00 AM 78.8 °F - 71.6 °F 78% 30.04 in 6.2 mi ESE 10.4 mph - N/A   Partly Cloudy
4:00 AM 78.8 °F - 71.6 °F 78% 30.04 in 6.2 mi SE 13.8 mph - N/A   Mostly Cloudy
5:00 AM 78 °F - 71 °F 74% 30.06 in 19 mi SE 11.5 mph - -   Partly Cloudy
5:00 AM 78.8 °F - 71.6 °F 78% 30.04 in 6.2 mi SE 11.5 mph - N/A   Scattered Clouds
6:00 AM 78.8 °F - 71.6 °F 78% 30.06 in 6.2 mi SE 12.7 mph - N/A   Partly Cloudy
7:00 AM 78.8 °F - 71.6 °F 78% 30.06 in 6.2 mi SE 12.7 mph - N/A   Partly Cloudy
8:00 AM 80 °F - 70 °F 64% 30.11 in 16 mi SE 13.8 mph - -   Scattered Clouds
8:00 AM 80.6 °F 83.9 °F 69.8 °F 70% 30.09 in 6.2 mi SE 13.8 mph - N/A   Partly Cloudy
9:00 AM 80.6 °F 83.9 °F 69.8 °F 70% 30.12 in 6.2 mi SE 12.7 mph - N/A   Partly Cloudy
10:00 AM 80.6 °F 83.9 °F 69.8 °F 70% 30.12 in 6.2 mi SE 12.7 mph - N/A   Partly Cloudy
11:00 AM 81 °F - 70 °F 62% 30.13 in 16 mi SE 12.7 mph - -   Scattered Clouds
11:00 AM 80.6 °F 83.9 °F 69.8 °F 70% 30.12 in 6.2 mi SE 12.7 mph - N/A   Partly Cloudy
12:00 PM 82.4 °F 86.3 °F 69.8 °F 66% 30.09 in 6.2 mi SE 13.8 mph - N/A   Partly Cloudy
1:00 PM 82.4 °F 86.3 °F 69.8 °F 66% 30.06 in 6.2 mi SE 12.7 mph - N/A   Partly Cloudy
2:00 PM 83 °F - 70 °F 57% 30.07 in 16 mi SE 11.5 mph - -   Scattered Clouds
2:00 PM 82.4 °F 87.2 °F 71.6 °F 70% 30.06 in 6.2 mi SE 11.5 mph - N/A   Partly Cloudy
3:00 PM 82.4 °F 86.3 °F 69.8 °F 66% 30.04 in 6.2 mi SE 12.7 mph - N/A   Partly Cloudy
4:00 PM 82.4 °F 87.2 °F 71.6 °F 70% 30.04 in 6.2 mi SE 11.5 mph - N/A   Partly Cloudy
5:00 PM 82 °F - 71 °F 62% 30.06 in 22 mi SE 11.5 mph - -  
5:00 PM 80.6 °F 84.6 °F 71.6 °F 74% 30.04 in 6.2 mi SE 11.5 mph - N/A   Partly Cloudy
6:00 PM 80.6 °F 83.9 °F 69.8 °F 70% 30.06 in 6.2 mi East 6.9 mph - N/A   Partly Cloudy
7:00 PM 78.8 °F - 69.8 °F 74% 30.06 in 6.2 mi East 6.9 mph - N/A   Partly Cloudy
8:00 PM 79 °F - 70 °F 66% 30.10 in 22 mi ESE 6.9 mph - -   Scattered Clouds
8:00 PM 78.8 °F - 69.8 °F 74% 30.09 in 6.2 mi ESE 6.9 mph - N/A   Partly Cloudy
9:00 PM 78.8 °F - 69.8 °F 74% 30.09 in 6.2 mi East 8.1 mph - N/A   Partly Cloudy
10:00 PM 78.8 °F - 69.8 °F 74% 30.12 in 6.2 mi ESE 8.1 mph - N/A   Scattered Clouds
11:00 PM 79 °F - 71 °F 69% 30.12 in 22 mi ESE 8.1 mph - -   Partly Cloudy
11:00 PM 78.8 °F - 71.6 °F 78% 30.09 in 6.2 mi ESE 8.1 mph - N/A   Scattered Clouds